Year,Month,Day,Hour,Minute,Value (Times are PST for temperature in C)
2018,07,23,00,00,16.90
2018,07,23,00,01,16.90
2018,07,23,00,02,16.90
2018,07,23,00,03,16.90
2018,07,23,00,04,16.80
2018,07,23,00,05,16.80
2018,07,23,00,06,16.80
2018,07,23,00,07,16.70
2018,07,23,00,08,16.70
2018,07,23,00,09,16.60
2018,07,23,00,10,16.50
2018,07,23,00,11,16.50
2018,07,23,00,12,16.40
2018,07,23,00,13,16.30
2018,07,23,00,14,16.30
2018,07,23,00,15,16.30
2018,07,23,00,16,16.20
2018,07,23,00,17,16.20
2018,07,23,00,18,16.20
2018,07,23,00,19,16.20
2018,07,23,00,20,16.20
2018,07,23,00,21,16.20
2018,07,23,00,22,16.30
2018,07,23,00,23,16.30
2018,07,23,00,24,16.30
2018,07,23,00,25,16.20
2018,07,23,00,26,16.20
2018,07,23,00,27,16.20
2018,07,23,00,28,16.20
2018,07,23,00,29,16.10
2018,07,23,00,30,16.20
2018,07,23,00,31,16.20
2018,07,23,00,32,16.30
2018,07,23,00,33,16.40
2018,07,23,00,34,16.40
2018,07,23,00,35,16.40
2018,07,23,00,36,16.30
2018,07,23,00,37,16.30
2018,07,23,00,38,16.30
2018,07,23,00,39,16.30
2018,07,23,00,40,16.30
2018,07,23,00,41,16.30
2018,07,23,00,42,16.20
2018,07,23,00,43,16.20
2018,07,23,00,44,16.20
2018,07,23,00,45,16.10
2018,07,23,00,46,16.00
2018,07,23,00,47,16.00
2018,07,23,00,48,15.90
2018,07,23,00,49,15.90
2018,07,23,00,50,15.90
2018,07,23,00,51,15.90
2018,07,23,00,52,15.80
2018,07,23,00,53,15.80
2018,07,23,00,54,15.80
2018,07,23,00,55,15.80
2018,07,23,00,56,15.70
2018,07,23,00,57,15.70
2018,07,23,00,58,15.70
2018,07,23,00,59,15.60
2018,07,23,01,00,15.60
2018,07,23,01,01,15.50
2018,07,23,01,02,15.50
2018,07,23,01,03,15.50
2018,07,23,01,04,15.60
2018,07,23,01,05,15.70
2018,07,23,01,06,15.70
2018,07,23,01,07,15.80
2018,07,23,01,08,15.80
2018,07,23,01,09,15.80
2018,07,23,01,10,15.80
2018,07,23,01,11,15.80
2018,07,23,01,12,15.80
2018,07,23,01,13,15.80
2018,07,23,01,14,15.70
2018,07,23,01,15,15.70
2018,07,23,01,16,15.70
2018,07,23,01,17,15.60
2018,07,23,01,18,15.50
2018,07,23,01,19,15.50
2018,07,23,01,20,15.40
2018,07,23,01,21,15.40
2018,07,23,01,22,15.30
2018,07,23,01,23,15.30
2018,07,23,01,24,15.30
2018,07,23,01,25,15.20
2018,07,23,01,26,15.20
2018,07,23,01,27,15.20
2018,07,23,01,28,15.20
2018,07,23,01,29,15.20
2018,07,23,01,30,15.30
2018,07,23,01,31,15.30
2018,07,23,01,32,15.40
2018,07,23,01,33,15.40
2018,07,23,01,34,15.40
2018,07,23,01,35,15.40
2018,07,23,01,36,15.40
2018,07,23,01,37,15.40
2018,07,23,01,38,15.40
2018,07,23,01,39,15.40
2018,07,23,01,40,15.40
2018,07,23,01,41,15.40
2018,07,23,01,42,15.30
2018,07,23,01,43,15.30
2018,07,23,01,44,15.20
2018,07,23,01,45,15.20
2018,07,23,01,46,15.10
2018,07,23,01,47,15.10
2018,07,23,01,48,15.10
2018,07,23,01,49,15.00
2018,07,23,01,50,15.00
2018,07,23,01,51,15.00
2018,07,23,01,52,14.90
2018,07,23,01,53,14.90
2018,07,23,01,54,14.90
2018,07,23,01,55,14.90
2018,07,23,01,56,14.90
2018,07,23,01,57,14.90
2018,07,23,01,58,14.90
2018,07,23,01,59,14.90
2018,07,23,02,00,15.00
2018,07,23,02,01,15.10
2018,07,23,02,02,15.10
2018,07,23,02,03,15.10
2018,07,23,02,04,15.10
2018,07,23,02,05,15.10
2018,07,23,02,06,15.10
2018,07,23,02,07,15.10
2018,07,23,02,08,15.10
2018,07,23,02,09,15.10
2018,07,23,02,10,15.10
2018,07,23,02,11,15.10
2018,07,23,02,12,15.10
2018,07,23,02,13,15.00
2018,07,23,02,14,15.00
2018,07,23,02,15,15.00
2018,07,23,02,16,15.00
2018,07,23,02,17,15.00
2018,07,23,02,18,15.00
2018,07,23,02,19,14.90
2018,07,23,02,20,14.90
2018,07,23,02,21,14.90
2018,07,23,02,22,14.90
2018,07,23,02,23,14.90
2018,07,23,02,24,14.80
2018,07,23,02,25,14.80
2018,07,23,02,26,14.80
2018,07,23,02,27,14.70
2018,07,23,02,28,14.70
2018,07,23,02,29,14.60
2018,07,23,02,30,14.60
2018,07,23,02,31,14.50
2018,07,23,02,32,14.50
2018,07,23,02,33,14.40
2018,07,23,02,34,14.40
2018,07,23,02,35,14.40
2018,07,23,02,36,14.30
2018,07,23,02,37,14.30
2018,07,23,02,38,14.30
2018,07,23,02,39,14.30
2018,07,23,02,40,14.20
2018,07,23,02,41,14.20
2018,07,23,02,42,14.20
2018,07,23,02,43,14.20
2018,07,23,02,44,14.20
2018,07,23,02,45,14.20
2018,07,23,02,46,14.30
2018,07,23,02,47,14.30
2018,07,23,02,48,14.40
2018,07,23,02,49,14.40
2018,07,23,02,50,14.40
2018,07,23,02,51,14.40
2018,07,23,02,52,14.40
2018,07,23,02,53,14.50
2018,07,23,02,54,14.40
2018,07,23,02,55,14.40
2018,07,23,02,56,14.40
2018,07,23,02,57,14.30
2018,07,23,02,58,14.30
2018,07,23,02,59,14.30
2018,07,23,03,00,14.20
2018,07,23,03,01,14.20
2018,07,23,03,02,14.20
2018,07,23,03,03,14.20
2018,07,23,03,04,14.20
2018,07,23,03,05,14.20
2018,07,23,03,06,14.20
2018,07,23,03,07,14.20
2018,07,23,03,08,14.20
2018,07,23,03,09,14.20
2018,07,23,03,10,14.20
2018,07,23,03,11,14.10
2018,07,23,03,12,14.10
2018,07,23,03,13,14.10
2018,07,23,03,14,14.10
2018,07,23,03,15,14.10
2018,07,23,03,16,14.10
2018,07,23,03,17,14.00
2018,07,23,03,18,14.00
2018,07,23,03,19,14.00
2018,07,23,03,20,14.00
2018,07,23,03,21,14.00
2018,07,23,03,22,14.00
2018,07,23,03,23,14.00
2018,07,23,03,24,14.00
2018,07,23,03,25,14.00
2018,07,23,03,26,14.00
2018,07,23,03,27,14.00
2018,07,23,03,28,14.00
2018,07,23,03,29,14.00
2018,07,23,03,30,14.00
2018,07,23,03,31,14.00
2018,07,23,03,32,14.00
2018,07,23,03,33,14.00
2018,07,23,03,34,14.00
2018,07,23,03,35,14.00
2018,07,23,03,36,14.00
2018,07,23,03,37,14.00
2018,07,23,03,38,14.00
2018,07,23,03,39,14.00
2018,07,23,03,40,14.00
2018,07,23,03,41,14.00
2018,07,23,03,42,14.00
2018,07,23,03,43,14.00
2018,07,23,03,44,14.00
2018,07,23,03,45,13.90
2018,07,23,03,46,13.90
2018,07,23,03,47,14.00
2018,07,23,03,48,14.00
2018,07,23,03,49,14.00
2018,07,23,03,50,14.00
2018,07,23,03,51,14.00
2018,07,23,03,52,14.00
2018,07,23,03,53,14.00
2018,07,23,03,54,14.00
2018,07,23,03,55,14.00
2018,07,23,03,56,14.10
2018,07,23,03,57,14.10
2018,07,23,03,58,14.10
2018,07,23,03,59,14.10
2018,07,23,04,00,14.10
2018,07,23,04,01,14.10
2018,07,23,04,02,14.20
2018,07,23,04,03,14.20
2018,07,23,04,04,14.20
2018,07,23,04,05,14.20
2018,07,23,04,06,14.20
2018,07,23,04,07,14.20
2018,07,23,04,08,14.20
2018,07,23,04,09,14.20
2018,07,23,04,10,14.20
2018,07,23,04,11,14.20
2018,07,23,04,12,14.30
2018,07,23,04,13,14.30
2018,07,23,04,14,14.20
2018,07,23,04,15,14.20
2018,07,23,04,16,14.20
2018,07,23,04,17,14.20
2018,07,23,04,18,14.30
2018,07,23,04,19,14.30
2018,07,23,04,20,14.30
2018,07,23,04,21,14.20
2018,07,23,04,22,14.20
2018,07,23,04,23,14.20
2018,07,23,04,24,14.20
2018,07,23,04,25,14.20
2018,07,23,04,26,14.20
2018,07,23,04,27,14.20
2018,07,23,04,28,14.20
2018,07,23,04,29,14.20
2018,07,23,04,30,14.20
2018,07,23,04,31,14.20
2018,07,23,04,32,14.20
2018,07,23,04,33,14.20
2018,07,23,04,34,14.20
2018,07,23,04,35,14.20
2018,07,23,04,36,14.20
2018,07,23,04,37,14.20
2018,07,23,04,38,14.20
2018,07,23,04,39,14.20
2018,07,23,04,40,14.10
2018,07,23,04,41,14.10
2018,07,23,04,42,14.10
2018,07,23,04,43,14.10
2018,07,23,04,44,14.10
2018,07,23,04,45,14.10
2018,07,23,04,46,14.10
2018,07,23,04,47,14.10
2018,07,23,04,48,14.10
2018,07,23,04,49,14.00
2018,07,23,04,50,14.00
2018,07,23,04,51,13.90
2018,07,23,04,52,13.90
2018,07,23,04,53,13.80
2018,07,23,04,54,13.80
2018,07,23,04,55,13.70
2018,07,23,04,56,13.70
2018,07,23,04,57,13.70
2018,07,23,04,58,13.60
2018,07,23,04,59,13.60
2018,07,23,05,00,13.50
2018,07,23,05,01,13.50
2018,07,23,05,02,13.50
2018,07,23,05,03,13.50
2018,07,23,05,04,13.50
2018,07,23,05,05,13.50
2018,07,23,05,06,13.50
2018,07,23,05,07,13.60
2018,07,23,05,08,13.60
2018,07,23,05,09,13.60
2018,07,23,05,10,13.60
2018,07,23,05,11,13.60
2018,07,23,05,12,13.60
2018,07,23,05,13,13.60
2018,07,23,05,14,13.50
2018,07,23,05,15,13.50
2018,07,23,05,16,13.50
2018,07,23,05,17,13.50
2018,07,23,05,18,13.40
2018,07,23,05,19,13.40
2018,07,23,05,20,13.40
2018,07,23,05,21,13.40
2018,07,23,05,22,13.40
2018,07,23,05,23,13.40
2018,07,23,05,24,13.40
2018,07,23,05,25,13.40
2018,07,23,05,26,13.40
2018,07,23,05,27,13.40
2018,07,23,05,28,13.40
2018,07,23,05,29,13.40
2018,07,23,05,30,13.40
2018,07,23,05,31,13.30
2018,07,23,05,32,13.30
2018,07,23,05,33,13.30
2018,07,23,05,34,13.30
2018,07,23,05,35,13.30
2018,07,23,05,36,13.30
2018,07,23,05,37,13.30
2018,07,23,05,38,13.30
2018,07,23,05,39,13.30
2018,07,23,05,40,13.30
2018,07,23,05,41,13.30
2018,07,23,05,42,13.30
2018,07,23,05,43,13.30
2018,07,23,05,44,13.30
2018,07,23,05,45,13.30
2018,07,23,05,46,13.30
2018,07,23,05,47,13.30
2018,07,23,05,48,13.20
2018,07,23,05,49,13.20
2018,07,23,05,50,13.10
2018,07,23,05,51,13.10
2018,07,23,05,52,13.10
2018,07,23,05,53,13.00
2018,07,23,05,54,12.90
2018,07,23,05,55,12.90
2018,07,23,05,56,12.90
2018,07,23,05,57,12.90
2018,07,23,05,58,12.80
2018,07,23,05,59,12.80
2018,07,23,06,00,12.80
2018,07,23,06,01,12.80
2018,07,23,06,02,12.80
2018,07,23,06,03,12.90
2018,07,23,06,04,12.90
2018,07,23,06,05,12.90
2018,07,23,06,06,12.80
2018,07,23,06,07,12.80
2018,07,23,06,08,12.80
2018,07,23,06,09,12.80
2018,07,23,06,10,12.80
2018,07,23,06,11,12.80
2018,07,23,06,12,12.80
2018,07,23,06,13,12.80
2018,07,23,06,14,12.80
2018,07,23,06,15,12.80
2018,07,23,06,16,12.70
2018,07,23,06,17,12.70
2018,07,23,06,18,12.70
2018,07,23,06,19,12.70
2018,07,23,06,20,12.70
2018,07,23,06,21,12.80
2018,07,23,06,22,12.80
2018,07,23,06,23,12.80
2018,07,23,06,24,12.80
2018,07,23,06,25,12.80
2018,07,23,06,26,12.80
2018,07,23,06,27,12.80
2018,07,23,06,28,12.80
2018,07,23,06,29,12.90
2018,07,23,06,30,12.90
2018,07,23,06,31,12.90
2018,07,23,06,32,13.00
2018,07,23,06,33,13.00
2018,07,23,06,34,13.00
2018,07,23,06,35,13.10
2018,07,23,06,36,13.10
2018,07,23,06,37,13.10
2018,07,23,06,38,13.20
2018,07,23,06,39,13.20
2018,07,23,06,40,13.20
2018,07,23,06,41,13.20
2018,07,23,06,42,13.30
2018,07,23,06,43,13.30
2018,07,23,06,44,13.30
2018,07,23,06,45,13.40
2018,07,23,06,46,13.40
2018,07,23,06,47,13.40
2018,07,23,06,48,13.40
2018,07,23,06,49,13.40
2018,07,23,06,50,13.40
2018,07,23,06,51,13.40
2018,07,23,06,52,13.40
2018,07,23,06,53,13.40
2018,07,23,06,54,13.40
2018,07,23,06,55,13.40
2018,07,23,06,56,13.50
2018,07,23,06,57,13.50
2018,07,23,06,58,13.50
2018,07,23,06,59,13.50
2018,07,23,07,00,13.50
2018,07,23,07,01,13.60
2018,07,23,07,02,13.60
2018,07,23,07,03,13.60
2018,07,23,07,04,13.60
2018,07,23,07,05,13.60
2018,07,23,07,06,13.70
2018,07,23,07,07,13.70
2018,07,23,07,08,13.70
2018,07,23,07,09,13.80
2018,07,23,07,10,13.90
2018,07,23,07,11,14.00
2018,07,23,07,12,14.10
2018,07,23,07,13,14.20
2018,07,23,07,14,14.30
2018,07,23,07,15,14.40
2018,07,23,07,16,14.50
2018,07,23,07,17,14.60
2018,07,23,07,18,14.70
2018,07,23,07,19,14.70
2018,07,23,07,20,14.80
2018,07,23,07,21,14.90
2018,07,23,07,22,15.00
2018,07,23,07,23,15.10
2018,07,23,07,24,15.20
2018,07,23,07,25,15.20
2018,07,23,07,26,15.30
2018,07,23,07,27,15.30
2018,07,23,07,28,15.40
2018,07,23,07,29,15.50
2018,07,23,07,30,15.50
2018,07,23,07,31,15.60
2018,07,23,07,32,15.60
2018,07,23,07,33,15.70
2018,07,23,07,34,15.80
2018,07,23,07,35,15.80
2018,07,23,07,36,15.90
2018,07,23,07,37,15.90
2018,07,23,07,38,16.00
2018,07,23,07,39,16.00
2018,07,23,07,40,16.10
2018,07,23,07,41,16.10
2018,07,23,07,42,16.20
2018,07,23,07,43,16.20
2018,07,23,07,44,16.30
2018,07,23,07,45,16.30
2018,07,23,07,46,16.30
2018,07,23,07,47,16.40
2018,07,23,07,48,16.50
2018,07,23,07,49,16.50
2018,07,23,07,50,16.60
2018,07,23,07,51,16.70
2018,07,23,07,52,16.80
2018,07,23,07,53,16.80
2018,07,23,07,54,16.90
2018,07,23,07,55,16.90
2018,07,23,07,56,17.00
2018,07,23,07,57,17.10
2018,07,23,07,58,17.20
2018,07,23,07,59,17.20
2018,07,23,08,00,17.30
2018,07,23,08,01,17.30
2018,07,23,08,02,17.40
2018,07,23,08,03,17.50
2018,07,23,08,04,17.50
2018,07,23,08,05,17.60
2018,07,23,08,06,17.70
2018,07,23,08,07,17.80
2018,07,23,08,08,17.90
2018,07,23,08,09,18.00
2018,07,23,08,10,18.00
2018,07,23,08,11,18.10
2018,07,23,08,12,18.20
2018,07,23,08,13,18.30
2018,07,23,08,14,18.40
2018,07,23,08,15,18.40
2018,07,23,08,16,18.50
2018,07,23,08,17,18.60
2018,07,23,08,18,18.70
2018,07,23,08,19,18.70
2018,07,23,08,20,18.80
2018,07,23,08,21,18.90
2018,07,23,08,22,18.90
2018,07,23,08,23,19.00
2018,07,23,08,24,19.10
2018,07,23,08,25,19.10
2018,07,23,08,26,19.20
2018,07,23,08,27,19.30
2018,07,23,08,28,19.30
2018,07,23,08,29,19.40
2018,07,23,08,30,19.40
2018,07,23,08,31,19.50
2018,07,23,08,32,19.60
2018,07,23,08,33,19.60
2018,07,23,08,34,19.60
2018,07,23,08,35,19.70
2018,07,23,08,36,19.70
2018,07,23,08,37,19.80
2018,07,23,08,38,19.80
2018,07,23,08,39,19.80
2018,07,23,08,40,19.90
2018,07,23,08,41,19.90
2018,07,23,08,42,20.00
2018,07,23,08,43,20.00
2018,07,23,08,44,20.10
2018,07,23,08,45,20.10
2018,07,23,08,46,20.10
2018,07,23,08,47,20.10
2018,07,23,08,48,20.20
2018,07,23,08,49,20.30
2018,07,23,08,50,20.30
2018,07,23,08,51,20.40
2018,07,23,08,52,20.40
2018,07,23,08,53,20.50
2018,07,23,08,54,20.60
2018,07,23,08,55,20.60
2018,07,23,08,56,20.70
2018,07,23,08,57,20.80
2018,07,23,08,58,20.80
2018,07,23,08,59,20.90
2018,07,23,09,00,20.90
2018,07,23,09,01,21.00
2018,07,23,09,02,21.00
2018,07,23,09,03,21.10
2018,07,23,09,04,21.20
2018,07,23,09,05,21.20
2018,07,23,09,06,21.30
2018,07,23,09,07,21.30
2018,07,23,09,08,21.30
2018,07,23,09,09,21.40
2018,07,23,09,10,21.40
2018,07,23,09,11,21.50
2018,07,23,09,12,21.50
2018,07,23,09,13,21.60
2018,07,23,09,14,21.60
2018,07,23,09,15,21.70
2018,07,23,09,16,21.70
2018,07,23,09,17,21.80
2018,07,23,09,18,21.80
2018,07,23,09,19,21.70
2018,07,23,09,20,21.80
2018,07,23,09,21,21.80
2018,07,23,09,22,21.80
2018,07,23,09,23,21.80
2018,07,23,09,24,21.80
2018,07,23,09,25,21.80
2018,07,23,09,26,21.80
2018,07,23,09,27,21.80
2018,07,23,09,28,21.80
2018,07,23,09,29,21.70
2018,07,23,09,30,21.70
2018,07,23,09,31,21.60
2018,07,23,09,32,21.50
2018,07,23,09,33,21.50
2018,07,23,09,34,21.50
2018,07,23,09,35,21.50
2018,07,23,09,36,21.60
2018,07,23,09,37,21.60
2018,07,23,09,38,21.60
2018,07,23,09,39,21.60
2018,07,23,09,40,21.60
2018,07,23,09,41,21.60
2018,07,23,09,42,21.50
2018,07,23,09,43,21.40
2018,07,23,09,44,21.30
2018,07,23,09,45,21.20
2018,07,23,09,46,21.20
2018,07,23,09,47,21.20
2018,07,23,09,48,21.20
2018,07,23,09,49,21.20
2018,07,23,09,50,21.20
2018,07,23,09,51,21.20
2018,07,23,09,52,21.20
2018,07,23,09,53,21.20
2018,07,23,09,54,21.20
2018,07,23,09,55,21.20
2018,07,23,09,56,21.20
2018,07,23,09,57,21.20
2018,07,23,09,58,21.20
2018,07,23,09,59,21.20
2018,07,23,10,00,21.10
2018,07,23,10,01,21.10
2018,07,23,10,02,21.10
2018,07,23,10,03,21.00
2018,07,23,10,04,21.00
2018,07,23,10,05,20.90
2018,07,23,10,06,21.00
2018,07,23,10,07,21.10
2018,07,23,10,08,21.20
2018,07,23,10,09,21.30
2018,07,23,10,10,21.30
2018,07,23,10,11,21.40
2018,07,23,10,12,21.50
2018,07,23,10,13,21.50
2018,07,23,10,14,21.60
2018,07,23,10,15,21.70
2018,07,23,10,16,21.80
2018,07,23,10,17,21.90
2018,07,23,10,18,22.00
2018,07,23,10,19,22.10
2018,07,23,10,20,22.10
2018,07,23,10,21,22.10
2018,07,23,10,22,22.20
2018,07,23,10,23,22.30
2018,07,23,10,24,22.30
2018,07,23,10,25,22.20
2018,07,23,10,26,22.20
2018,07,23,10,27,22.20
2018,07,23,10,28,22.20
2018,07,23,10,29,22.30
2018,07,23,10,30,22.40
2018,07,23,10,31,22.40
2018,07,23,10,32,22.40
2018,07,23,10,33,22.50
2018,07,23,10,34,22.50
2018,07,23,10,35,22.40
2018,07,23,10,36,22.40
2018,07,23,10,37,22.50
2018,07,23,10,38,22.60
2018,07,23,10,39,22.60
2018,07,23,10,40,22.60
2018,07,23,10,41,22.60
2018,07,23,10,42,22.60
2018,07,23,10,43,22.70
2018,07,23,10,44,22.70
2018,07,23,10,45,22.80
2018,07,23,10,46,22.70
2018,07,23,10,47,22.70
2018,07,23,10,48,22.70
2018,07,23,10,49,22.80
2018,07,23,10,50,22.80
2018,07,23,10,51,22.80
2018,07,23,10,52,22.80
2018,07,23,10,53,22.80
2018,07,23,10,54,22.80
2018,07,23,10,55,22.80
2018,07,23,10,56,22.80
2018,07,23,10,57,22.70
2018,07,23,10,58,22.70
2018,07,23,10,59,22.60
2018,07,23,11,00,22.60
2018,07,23,11,01,22.50
2018,07,23,11,02,22.40
2018,07,23,11,03,22.30
2018,07,23,11,04,22.30
2018,07,23,11,05,22.20
2018,07,23,11,06,22.30
2018,07,23,11,07,22.30
2018,07,23,11,08,22.30
2018,07,23,11,09,22.40
2018,07,23,11,10,22.40
2018,07,23,11,11,22.40
2018,07,23,11,12,22.40
2018,07,23,11,13,22.50
2018,07,23,11,14,22.40
2018,07,23,11,15,22.30
2018,07,23,11,16,22.20
2018,07,23,11,17,22.20
2018,07,23,11,18,22.20
2018,07,23,11,19,22.30
2018,07,23,11,20,22.30
2018,07,23,11,21,22.30
2018,07,23,11,22,22.30
2018,07,23,11,23,22.30
2018,07,23,11,24,22.30
2018,07,23,11,25,22.30
2018,07,23,11,26,22.20
2018,07,23,11,27,22.20
2018,07,23,11,28,22.20
2018,07,23,11,29,22.10
2018,07,23,11,30,22.10
2018,07,23,11,31,22.00
2018,07,23,11,32,21.90
2018,07,23,11,33,21.80
2018,07,23,11,34,21.80
2018,07,23,11,35,21.90
2018,07,23,11,36,21.90
2018,07,23,11,37,22.00
2018,07,23,11,38,22.00
2018,07,23,11,39,22.10
2018,07,23,11,40,22.10
2018,07,23,11,41,22.10
2018,07,23,11,42,22.20
2018,07,23,11,43,22.20
2018,07,23,11,44,22.20
2018,07,23,11,45,22.10
2018,07,23,11,46,22.10
2018,07,23,11,47,22.00
2018,07,23,11,48,22.00
2018,07,23,11,49,22.00
2018,07,23,11,50,22.10
2018,07,23,11,51,22.10
2018,07,23,11,52,22.10
2018,07,23,11,53,22.10
2018,07,23,11,54,22.10
2018,07,23,11,55,22.00
2018,07,23,11,56,22.00
2018,07,23,11,57,21.90
2018,07,23,11,58,21.90
2018,07,23,11,59,21.90
2018,07,23,12,00,22.00
2018,07,23,12,01,22.00
2018,07,23,12,02,22.10
2018,07,23,12,03,22.20
2018,07,23,12,04,22.20
2018,07,23,12,05,22.20
2018,07,23,12,06,22.30
2018,07,23,12,07,22.40
2018,07,23,12,08,22.50
2018,07,23,12,09,22.50
2018,07,23,12,10,22.60
2018,07,23,12,11,22.60
2018,07,23,12,12,22.70
2018,07,23,12,13,22.90
2018,07,23,12,14,23.00
2018,07,23,12,15,23.00
2018,07,23,12,16,23.00
2018,07,23,12,17,22.90
2018,07,23,12,18,22.80
2018,07,23,12,19,22.80
2018,07,23,12,20,22.70
2018,07,23,12,21,22.70
2018,07,23,12,22,22.70
2018,07,23,12,23,22.60
2018,07,23,12,24,22.60
2018,07,23,12,25,22.60
2018,07,23,12,26,22.60
2018,07,23,12,27,22.60
2018,07,23,12,28,22.70
2018,07,23,12,29,22.80
2018,07,23,12,30,22.90
2018,07,23,12,31,23.00
2018,07,23,12,32,23.10
2018,07,23,12,33,23.20
2018,07,23,12,34,23.20
2018,07,23,12,35,23.20
2018,07,23,12,36,23.20
2018,07,23,12,37,23.20
2018,07,23,12,38,23.30
2018,07,23,12,39,23.30
2018,07,23,12,40,23.20
2018,07,23,12,41,23.20
2018,07,23,12,42,23.20
2018,07,23,12,43,23.20
2018,07,23,12,44,23.20
2018,07,23,12,45,23.30
2018,07,23,12,46,23.30
2018,07,23,12,47,23.40
2018,07,23,12,48,23.40
2018,07,23,12,49,23.40
2018,07,23,12,50,23.40
2018,07,23,12,51,23.40
2018,07,23,12,52,23.40
2018,07,23,12,53,23.40
2018,07,23,12,54,23.30
2018,07,23,12,55,23.30
2018,07,23,12,56,23.30
2018,07,23,12,57,23.40
2018,07,23,12,58,23.50
2018,07,23,12,59,23.50
2018,07,23,13,00,23.60
2018,07,23,13,01,23.70
2018,07,23,13,02,23.70
2018,07,23,13,03,23.80
2018,07,23,13,04,23.90
2018,07,23,13,05,24.00
2018,07,23,13,06,24.10
2018,07,23,13,07,24.20
2018,07,23,13,08,24.20
2018,07,23,13,09,24.30
2018,07,23,13,10,24.40
2018,07,23,13,11,24.40
2018,07,23,13,12,24.50
2018,07,23,13,13,24.60
2018,07,23,13,14,24.70
2018,07,23,13,15,24.80
2018,07,23,13,16,24.80
2018,07,23,13,17,24.80
2018,07,23,13,18,24.80
2018,07,23,13,19,24.80
2018,07,23,13,20,24.80
2018,07,23,13,21,24.80
2018,07,23,13,22,24.70
2018,07,23,13,23,24.70
2018,07,23,13,24,24.60
2018,07,23,13,25,24.50
2018,07,23,13,26,24.50
2018,07,23,13,27,24.40
2018,07,23,13,28,24.40
2018,07,23,13,29,24.40
2018,07,23,13,30,24.40
2018,07,23,13,31,24.30
2018,07,23,13,32,24.30
2018,07,23,13,33,24.20
2018,07,23,13,34,24.30
2018,07,23,13,35,24.40
2018,07,23,13,36,24.40
2018,07,23,13,37,24.50
2018,07,23,13,38,24.50
2018,07,23,13,39,24.50
2018,07,23,13,40,24.40
2018,07,23,13,41,24.40
2018,07,23,13,42,24.40
2018,07,23,13,43,24.50
2018,07,23,13,44,24.50
2018,07,23,13,45,24.40
2018,07,23,13,46,24.30
2018,07,23,13,47,24.20
2018,07,23,13,48,24.10
2018,07,23,13,49,24.00
2018,07,23,13,50,23.90
2018,07,23,13,51,23.90
2018,07,23,13,52,23.90
2018,07,23,13,53,23.80
2018,07,23,13,54,23.70
2018,07,23,13,55,23.60
2018,07,23,13,56,23.50
2018,07,23,13,57,23.40
2018,07,23,13,58,23.40
2018,07,23,13,59,23.40
2018,07,23,14,00,23.40
2018,07,23,14,01,23.50
2018,07,23,14,02,23.60
2018,07,23,14,03,23.60
2018,07,23,14,04,23.60
2018,07,23,14,05,23.60
2018,07,23,14,06,23.60
2018,07,23,14,07,23.60
2018,07,23,14,08,23.60
2018,07,23,14,09,23.60
2018,07,23,14,10,23.60
2018,07,23,14,11,23.60
2018,07,23,14,12,23.70
2018,07,23,14,13,23.80
2018,07,23,14,14,23.80
2018,07,23,14,15,23.80
2018,07,23,14,16,23.90
2018,07,23,14,17,23.90
2018,07,23,14,18,23.90
2018,07,23,14,19,24.00
2018,07,23,14,20,24.00
2018,07,23,14,21,24.00
2018,07,23,14,22,24.00
2018,07,23,14,23,24.00
2018,07,23,14,24,24.00
2018,07,23,14,25,24.10
2018,07,23,14,26,24.10
2018,07,23,14,27,24.20
2018,07,23,14,28,24.20
2018,07,23,14,29,24.20
2018,07,23,14,30,24.30
2018,07,23,14,31,24.30
2018,07,23,14,32,24.30
2018,07,23,14,33,24.30
2018,07,23,14,34,24.30
2018,07,23,14,35,24.30
2018,07,23,14,36,24.20
2018,07,23,14,37,24.20
2018,07,23,14,38,24.20
2018,07,23,14,39,24.10
2018,07,23,14,40,24.00
2018,07,23,14,41,23.90
2018,07,23,14,42,23.90
2018,07,23,14,43,23.80
2018,07,23,14,44,23.80
2018,07,23,14,45,23.80
2018,07,23,14,46,23.80
2018,07,23,14,47,23.80
2018,07,23,14,48,23.90
2018,07,23,14,49,24.00
2018,07,23,14,50,24.10
2018,07,23,14,51,24.20
2018,07,23,14,52,24.30
2018,07,23,14,53,24.40
2018,07,23,14,54,24.40
2018,07,23,14,55,24.40
2018,07,23,14,56,24.50
2018,07,23,14,57,24.50
2018,07,23,14,58,24.60
2018,07,23,14,59,24.60
2018,07,23,15,00,24.70
2018,07,23,15,01,24.80
2018,07,23,15,02,24.80
2018,07,23,15,03,24.80
2018,07,23,15,04,24.80
2018,07,23,15,05,24.80
2018,07,23,15,06,24.90
2018,07,23,15,07,24.90
2018,07,23,15,08,25.00
2018,07,23,15,09,25.10
2018,07,23,15,10,25.10
2018,07,23,15,11,25.10
2018,07,23,15,12,25.10
2018,07,23,15,13,25.10
2018,07,23,15,14,25.20
2018,07,23,15,15,25.30
2018,07,23,15,16,25.40
2018,07,23,15,17,25.50
2018,07,23,15,18,25.50
2018,07,23,15,19,25.60
2018,07,23,15,20,25.60
2018,07,23,15,21,25.70
2018,07,23,15,22,25.80
2018,07,23,15,23,26.00
2018,07,23,15,24,26.10
2018,07,23,15,25,26.10
2018,07,23,15,26,26.20
2018,07,23,15,27,26.20
2018,07,23,15,28,26.30
2018,07,23,15,29,26.30
2018,07,23,15,30,26.20
2018,07,23,15,31,26.20
2018,07,23,15,32,26.20
2018,07,23,15,33,26.20
2018,07,23,15,34,26.20
2018,07,23,15,35,26.10
2018,07,23,15,36,26.10
2018,07,23,15,37,26.10
2018,07,23,15,38,26.10
2018,07,23,15,39,26.10
2018,07,23,15,40,26.10
2018,07,23,15,41,26.10
2018,07,23,15,42,26.10
2018,07,23,15,43,26.20
2018,07,23,15,44,26.20
2018,07,23,15,45,26.20
2018,07,23,15,46,26.20
2018,07,23,15,47,26.20
2018,07,23,15,48,26.20
2018,07,23,15,49,26.30
2018,07,23,15,50,26.30
2018,07,23,15,51,26.30
2018,07,23,15,52,26.30
2018,07,23,15,53,26.30
2018,07,23,15,54,26.30
2018,07,23,15,55,26.30
2018,07,23,15,56,26.40
2018,07,23,15,57,26.40
2018,07,23,15,58,26.40
2018,07,23,15,59,26.40
2018,07,23,16,00,26.40
2018,07,23,16,01,26.40
2018,07,23,16,02,26.50
2018,07,23,16,03,26.50
2018,07,23,16,04,26.60
2018,07,23,16,05,26.60
2018,07,23,16,06,26.60
2018,07,23,16,07,26.60
2018,07,23,16,08,26.60
2018,07,23,16,09,26.60
2018,07,23,16,10,26.60
2018,07,23,16,11,26.50
2018,07,23,16,12,26.50
2018,07,23,16,13,26.50
2018,07,23,16,14,26.50
2018,07,23,16,15,26.50
2018,07,23,16,16,26.40
2018,07,23,16,17,26.30
2018,07,23,16,18,26.10
2018,07,23,16,19,25.90
2018,07,23,16,20,25.90
2018,07,23,16,21,25.80
2018,07,23,16,22,25.80
2018,07,23,16,23,25.80
2018,07,23,16,24,25.80
2018,07,23,16,25,25.80
2018,07,23,16,26,25.80
2018,07,23,16,27,25.80
2018,07,23,16,28,25.90
2018,07,23,16,29,25.90
2018,07,23,16,30,25.90
2018,07,23,16,31,26.00
2018,07,23,16,32,26.10
2018,07,23,16,33,26.10
2018,07,23,16,34,26.20
2018,07,23,16,35,26.20
2018,07,23,16,36,26.20
2018,07,23,16,37,26.30
2018,07,23,16,38,26.30
2018,07,23,16,39,26.30
2018,07,23,16,40,26.40
2018,07,23,16,41,26.40
2018,07,23,16,42,26.50
2018,07,23,16,43,26.60
2018,07,23,16,44,26.60
2018,07,23,16,45,26.60
2018,07,23,16,46,26.70
2018,07,23,16,47,26.70
2018,07,23,16,48,26.70
2018,07,23,16,49,26.70
2018,07,23,16,50,26.70
2018,07,23,16,51,26.70
2018,07,23,16,52,26.70
2018,07,23,16,53,26.80
2018,07,23,16,54,26.80
2018,07,23,16,55,26.80
2018,07,23,16,56,26.80
2018,07,23,16,57,26.80
2018,07,23,16,58,26.80
2018,07,23,16,59,26.70
2018,07,23,17,00,26.70
2018,07,23,17,01,26.70
2018,07,23,17,02,26.70
2018,07,23,17,03,26.70
2018,07,23,17,04,26.70
2018,07,23,17,05,26.70
2018,07,23,17,06,26.70
2018,07,23,17,07,26.60
2018,07,23,17,08,26.60
2018,07,23,17,09,26.50
2018,07,23,17,10,26.40
2018,07,23,17,11,26.20
2018,07,23,17,12,26.10
2018,07,23,17,13,26.00
2018,07,23,17,14,26.00
2018,07,23,17,15,25.90
2018,07,23,17,16,25.80
2018,07,23,17,17,25.80
2018,07,23,17,18,25.80
2018,07,23,17,19,25.80